Regional Weather Roundup
Issued by NWS

Home | Current Version | Previous Version | Graphics & Text | Print | Product List | Glossary On
Versions: 1 2 3 4 5 6 7 8 9 10 11 12 13 14 15 16 17 18 19 20 21 22 23 24 25 26 27 28 29 30 31 32 33 34 35 36 37 38 39 40 41 42 43 44 45 46 47 48 49 50
234
ASUS45 KBOU 292307
RWRCO

WEATHER ROUNDUP FOR COLORADO
NATIONAL WEATHER SERVICE DENVER/BOULDER CO
500 PM MDT MON MAY 29 2017

NOTE: "FAIR" INDICATES FEW OR NO CLOUDS BELOW 12000 FEET WITH NO
SIGNIFICANT WEATHER AND/OR OBSTRUCTIONS TO VISIBILITY.

COZ001>005-013-030-031-300000-
...NORTHWEST COLORADO...

CITY           SKY/WX    TMP DP  RH WIND       PRES   REMARKS
CRAIG          FAIR      72  30  21 N8        30.19F
HAYDEN         FAIR      64  36  34 E6        30.21F
MEEKER         FAIR      67  32  27 NE8       30.18F
RABBIT EARS PA FAIR      48  30  49 NW12      30.42S
STEAMBOAT SPGS FAIR      63  33  32 CALM      30.23F
WALDEN           N/A     52  36  54 E3        30.33F
$$

COZ006>008-011-300000-
...WEST CENTRAL VALLEYS...

CITY           SKY/WX    TMP DP  RH WIND       PRES   REMARKS
GRAND JUNCTION FAIR      81  25  12 NW7       30.04F
MONTROSE       FAIR      77  17  10 VRB5      30.11F
EAGLE          MOSUNNY   70  27  19 W8G18     30.18F
RIFLE          FAIR      77  16  10 W8        30.09F
DELTA          FAIR      85  10   6 W7G20     30.06F
NUCLA          FAIR      79  21  11 N8        30.14F
$$

COZ017>023-064>068-300000-
...SOUTHWEST COLORADO...

CITY           SKY/WX    TMP DP  RH WIND       PRES   REMARKS
DURANGO        FAIR      75  10   8 SW10G18   30.13F
CORTEZ         FAIR      80  19  10 N8        30.10F
PAGOSA SPRINGS FAIR      71  12  10 CALM      30.19F
TELLURIDE      CLOUDY    62  21  21 W9        30.32F
WOLF CREEK PAS FAIR      46  16  29 W12G20    30.50F
$$

COZ009-010-012-014-032>034-037-058>063-300000-
...CENTRAL COLORADO...

CITY           SKY/WX    TMP DP  RH WIND       PRES   REMARKS
ASPEN          FAIR      66  23  19 VRB7      30.21F
BUENA VISTA    FAIR      67  14  13 CALM      30.20F
COPPER MTN     CLOUDY    45  19  36 NW12      30.47F
BERTHOUD PASS  PTSUNNY   32  23  69 W22       30.50S WCI  19
COTTONWOOD PAS FAIR      64  -6   6 SW10      30.33S
GUNNISON       FAIR      66  22  18 VRB3      30.21F
KREMMLING      FAIR      70  32  24 NW13G18   30.26F
LEADVILLE      FAIR      57  10  15 NW8G16    30.32F
MONARCH PASS   PTSUNNY   50  16  25 W23G31    30.56S
SALIDA         FAIR      67  31  26 SE9G17    30.27S
SUNLIGHT       FAIR      48  19  32 W3        30.45F
WILKERSON PASS FAIR      45  30  57 E6        30.46S
$$

COZ069>075-300000-
...SAN LUIS VALLEY/SANGRE DE CRISTO MOUNTAINS...

CITY           SKY/WX    TMP DP  RH WIND       PRES   REMARKS
ALAMOSA        PTSUNNY   71  22  15 NE9       30.16F
DEL NORTE      FAIR      68  25  20 SE6       30.21F
LA VETA PASS   CLOUDY    50  34  53 N15G21    30.47F
SAGUACHE       FAIR      70  23  17 E14       30.21F
$$

COZ035-036-038>040-300000-
...NORTHERN COLORADO FRONT RANGE...

CITY           SKY/WX    TMP DP  RH WIND       PRES   REMARKS
DENVER INTL AP PTSUNNY   62  44  51 SE5       30.21S
DMNS CITY PARK   N/A     63  41  44 E8G14     30.20S
AURORA         PTSUNNY   62  44  51 SE9       30.22F
FRONT RANGE AP PTSUNNY   61  48  63 S14G23    30.22S
ERIE MUNI ARPT FAIR      67  42  41 N15       30.20F
BOULDER MUN AP FAIR      64  43  45 N13       30.20F
CENTENNIAL     PTSUNNY   60  44  55 SE8       30.22F
BROOMFIELD     PTSUNNY   66  41  39 N12       30.22F
FORT COLLINS   FAIR      66  44  45 W8        30.20F
LONGMONT       FAIR      67  46  45 N6        30.22F
$$

COZ041-046-047-076>085-087-088-300000-
...PIKES PEAK/PALMER DIVIDE AND SOUTHERN FOOTHILLS...

CITY           SKY/WX    TMP DP  RH WIND       PRES   REMARKS
COLO. SPRINGS  LGT RAIN  64  42  44 SW9       30.23R
A. F. ACADEMY  TSTM      59  43  55 S9        30.24R
SCHRIEVER AFB  LGT RAIN  63  36  36 SW7       30.24R
CHEYENNE MTN   LGT RAIN  54  40  58 SE9G24    30.19F
ELLICOTT       FAIR     N/A N/A N/A NE17G24   30.21S
FALCON         FAIR      60  34  36 S7        30.28
FORT CARSON    LGT RAIN  62  36  37 SW7       30.21R
LIMON          TSTM      47  45  93 NW6       30.24R
MONUMENT HILL  PTSUNNY   54  41  62 E13       30.29F
CANON CITY     NOT AVBL
WALSENBURG     MOCLDY    73  45  35 E14G20    30.15F
TRINIDAD       FAIR      70  37  29 S12       30.13F
$$

COZ042>045-048>051-090-091-300000-
...NORTHEAST COLORADO...

CITY           SKY/WX    TMP DP  RH WIND       PRES   REMARKS
GREELEY ARPT   FAIR      69  42  37 VRB6      30.18F
AKRON          PTSUNNY   69  43  38 MISG      30.17S
BURLINGTON     FAIR      71  43  36 W3        30.15F
WRAY           FAIR      77  34  20 NW7       30.11F
YUMA           FAIR      70  27  19 N6        30.13F
STERLING       NOT AVBL
HOLYOKE        NOT AVBL
FORT MORGAN    FAIR      70  35  27 NW3       30.18S
$$

COZ086-089-092>099-300000-
...SOUTHEAST COLORADO...

CITY           SKY/WX    TMP DP  RH WIND       PRES   REMARKS
PUEBLO         FAIR      74  43  32 E12       30.12S
LA JUNTA       FAIR      76  44  32 E10       30.09F
LAMAR          FAIR      77  44  30 E10       30.06F
SPRINGFIELD      N/A     63  45  51 SE7       30.12R
$$




USA.gov is the U.S. government's official web portal to all federal, state and local government web resources and services.